Location: Caltech
(34.1382°N, 118.1253°W)
Time: 01:46:31
(UTC-08:00)

Cosmos 2237 Rocket - Visible Passes

Search period start: 17 December 2017 00:00
Search period end: 27 December 2017 00:00
Orbit: 834 x 851 km, 71.0° (Epoch: 16 December)

Date Brightness Start Highest point End Pass type
(mag) Time Alt. Az. Time Alt. Az. Time Alt. Az.
19 Dec 4.5 06:13:45 10° NNE 06:17:45 19° ENE 06:21:44 10° ESE visible
20 Dec 4.6 05:59:00 10° NNE 06:02:52 18° ENE 06:06:42 10° E visible
21 Dec 4.6 05:44:16 10° NNE 05:47:59 18° ENE 05:51:40 10° E visible
22 Dec 4.6 05:29:32 10° NNE 05:33:06 17° NE 05:36:37 10° E visible
23 Dec 4.7 05:14:50 10° NNE 05:18:12 16° NE 05:21:33 10° E visible
24 Dec 4.7 05:00:08 10° NNE 05:03:19 15° NE 05:06:28 10° E visible
25 Dec 4.7 04:45:27 10° NNE 04:48:25 14° NE 04:51:23 10° E visible
25 Dec 2.2 06:27:24 10° NNW 06:33:03 73° WSW 06:38:37 10° SSE visible
25 Dec 4.6 19:30:53 10° S 19:31:10 11° S 19:31:10 11° S visible
26 Dec 4.8 04:30:47 10° NNE 04:33:32 14° NE 04:36:15 10° E visible
26 Dec 2.2 06:12:33 10° NNW 06:18:12 77° WSW 06:23:47 10° SSE visible
26 Dec 4.0 19:16:04 10° S 19:17:42 19° S 19:17:42 19° S visible
